Location: Radford
(37.1320°N, 80.5770°W)
Time: 21:36:33
(UTC-04:00)

Daily predictions for brighter satellites

Satellite Brightness Start Highest point End
(mag) Time Altitude Azimuth Time Altitude Azimuth Time Altitude Azimuth
ERS-1 Rocket 3.5 20:59:00 10° SE 21:03:42 42° ENE 21:08:25 10° N
CZ-4 DEB 2.7 21:02:34 10° SSE 21:05:47 78° ENE 21:09:01 10° N
SL-16 R/B 4.4 21:03:02 10° WSW 21:08:02 32° WNW 21:13:05 10° N
Resurs 01 Rocket 4.2 21:08:03 10° SW 21:11:23 21° W 21:14:44 10° NW
BREEZE-M DEB (TANK) 2.0 21:08:52 10° NW 21:11:32 58° NE 21:13:39 10° ESE
Envisat 3.9 21:17:19 10° SE 21:21:50 33° ENE 21:26:21 10° N
Cosmos 1891 Rocket 4.4 21:17:04 10° N 21:23:11 85° E 21:29:12 10° S
GEOS 3 Rocket 4.0 21:18:25 10° SE 21:23:33 55° NE 21:28:38 10° NNW
Cosmos 407 Rocket 4.3 21:19:18 10° SSE 21:23:48 29° E 21:28:17 10° NE
CZ-2D R/B 4.4 21:20:14 10° S 21:23:58 44° W 21:27:44 10° NNW
Milstar 3 Cent rocket 4.2 21:20:14 10° W 21:27:23 23° SW 21:32:04 10° SSE
FENGYUN 3A 4.2 21:26:44 10° S 21:32:01 59° W 21:37:21 10° NNW
Cosmos 1515 4.0 21:28:59 10° SSE 21:32:41 47° E 21:36:24 10° NNE
CZ-2C R/B 0.6 21:31:17 10° S 21:33:32 68° WSW 21:35:48 10° NNW
Cosmos 1602 Rocket 4.1 21:29:57 10° SSW 21:34:23 65° W 21:38:50 10° N
Cosmos 1825 Rocket 4.1 21:33:42 10° SSE 21:37:50 39° E 21:41:57 10° NNE
USA 186 3.9 21:40:45 10° SSW 21:42:48 19° W 21:44:47 10° NW
ALOS 3.7 21:40:44 10° SSW 21:45:01 36° W 21:49:19 10° NNW
Lacrosse 4 Rocket 1.2 21:42:41 10° SSW 21:46:42 73° ESE 21:50:46 10° NNE
Cosmos 1943 Rocket 3.7 21:42:42 10° N 21:46:54 21° ENE 21:50:21 13° E
Cosmos 1812 Rocket 3.6 21:43:24 10° N 21:47:49 83° W 21:52:16 10° S
Atlas Centaur 2 3.1 21:47:24 10° WSW 21:54:00 51° S 22:00:12 17° ESE
SeaSat 1 3.3 21:52:49 18° ESE 21:55:55 36° ENE 22:00:25 10° N
Cosmos 1992 Rocket 4.0 21:51:04 10° NNW 21:56:19 86° ENE 22:00:17 18° SSE
Cosmos 1943 3.3 21:51:03 10° SSW 21:56:43 81° WNW 22:02:26 10° NNE
ISS -0.1 21:55:35 10° WNW 21:57:32 15° NNW 21:59:29 10° NNE
H-2A R/B 2.5 21:53:24 10° S 21:57:34 62° W 22:01:55 10° NNW
USA 81 4.0 22:08:20 10° N 22:13:38 80° E 22:17:13 21° S
Centaur D AC-28 3.7 22:13:07 10° SW 22:14:55 13° SSW 22:15:06 13° S
CZ-4B R/B 3.5 22:09:56 10° NNE 22:15:04 66° ESE 22:19:12 16° S
CZ-4 R/B 4.3 22:11:09 10° NNE 22:15:57 45° E 22:18:13 27° SSE
Cosmos 1939 Rocket 3.8 22:12:46 14° S 22:16:05 47° W 22:20:06 10° NNW
Cosmos 1953 3.9 22:13:54 10° NNE 22:16:47 19° ENE 22:17:07 19° E
PSLV R/B 4.2 22:15:52 10° WNW 22:19:18 46° N 22:21:16 22° ENE
Terra 3.5 22:19:03 17° E 22:20:21 18° ENE 22:23:34 10° NNE
ARGOS 3.6 22:18:01 27° SE 22:20:32 46° ENE 22:25:43 10° N
ATLAS 3B R/B 3.3 22:13:45 10° SW 22:21:25 68° WNW 22:28:58 10° NNE
Cosmos 2142 Rocket 4.4 22:15:25 10° N 22:21:42 86° E 22:25:55 22° S
Cosmos 1346 Rocket 2.8 22:19:41 18° SSW 22:22:30 75° W 22:26:27 10° N
SPOT 5 2.8 22:21:02 23° S 22:23:39 66° WSW 22:27:58 10° NNW
USA 245 4.2 22:21:16 28° SSE 22:24:15 64° ENE 22:29:05 10° N
Cosmos 1842 3.6 22:25:37 41° ESE 22:26:08 43° E 22:29:51 10° NNE
Cosmos 1953 Rocket 3.7 22:23:11 18° SSW 22:26:28 76° W 22:30:57 10° N
CZ-4 SHROUD 4.3 22:25:30 26° SSW 22:26:47 40° W 22:29:47 10° NNW
Cosmos-2242 3.9 22:23:15 10° NNE 22:27:16 33° ENE 22:28:01 31° E
MetOp-B 4.1 22:24:19 26° SSE 22:27:29 87° WSW 22:32:52 10° NNW
PSLV R/B 4.2 22:26:38 29° SSW 22:27:45 41° W 22:30:44 10° NNW
Cosmos 1140 Rocket 3.9 22:26:32 33° SE 22:28:12 43° ESE 22:33:08 10° NNE
Cosmos 1634 Rocket 4.0 22:22:37 10° N 22:28:49 80° W 22:33:08 21° S
H-2A R/B 3.1 22:33:42 25° E 22:35:00 29° ENE 22:39:20 10° N
Meteor 1-21 4.2 22:31:59 21° S 22:36:02 84° E 22:41:53 10° N
Cosmos 1607 4.1 22:32:57 21° S 22:36:58 51° ESE 22:42:59 10° NE
Cosmos 676 Rocket 4.3 22:33:55 10° SSW 22:39:14 70° WNW 22:44:34 10° NNE
USA 234 3.9 22:37:10 21° E 22:41:19 47° NE 22:47:34 10° NW
Cosmos 2369 Rocket 2.8 22:36:08 10° NNW 22:41:35 50° WSW 22:44:34 25° S
SPOT 1/Viking Rocket 3.5 22:41:55 36° S 22:44:06 85° WSW 22:49:16 10° NNW
YAOGAN 6 2.9 22:43:54 48° SSW 22:44:43 64° W 22:48:27 10° NNW
Cosmos 1932 4.5 22:39:55 10° SSW 22:46:06 79° WNW 22:52:21 10° NNE
Cosmos 2279 Rocket 3.9 22:41:07 10° N 22:47:24 83° E 22:50:13 35° SSE
Cosmos 614 Rocket 4.4 22:48:02 40° ESE 22:48:17 40° ESE 22:53:08 10° NNE
SL-08 RB Rocket 3.6 22:51:27 55° SSE 22:52:24 78° ENE 22:56:56 10° N
NOAA 11 4.1 22:51:03 42° SSE 22:52:57 84° ENE 22:58:23 10° NNW
Cosmos 1766 3.5 22:50:33 10° NNW 22:54:33 66° W 22:55:14 54° SSW
CARTOSAT-1 3.9 23:02:00 48° ENE 23:02:06 48° ENE 23:06:17 10° N
CZ-4C R/B 3.1 23:03:35 30° E 23:03:35 30° E 23:07:26 10° NE
Cosmos 1758 3.3 23:01:34 10° N 23:05:36 74° ENE 23:05:36 74° ENE
USA 238 DEB 3.9 23:01:56 10° SW 23:09:01 73° WNW 23:16:07 10° NNE
USA 238 3.9 23:02:02 10° SW 23:09:07 74° WNW 23:16:12 10° NNE
SL-27 R/B 3.9 23:10:36 29° W 23:11:14 32° WNW 23:14:17 10° N
DMSP B5D2-2 3.9 23:12:17 10° NNE 23:17:34 71° ESE 23:18:08 65° SE
IGS 5A 3.7 23:19:53 61° NE 23:19:53 61° NE 23:23:37 10° N
Cosmos 1470 4.2 23:16:50 10° NNE 23:19:20 28° NE 23:19:20 28° NE
Cosmos 1805 3.5 23:17:01 10° N 23:20:29 67° NNW 23:20:29 67° NNW
COSMOS 2487 4.0 23:24:51 32° NNE 23:24:51 32° NNE 23:26:54 10° NNE
COSMOS 2406 3.7 23:21:23 22° SW 23:24:59 60° WNW 23:30:40 10° NNE
Cosmos 1943 Rocket 2.6 23:25:33 10° NNW 23:30:55 50° WSW 23:31:53 45° SW
Cosmos 2082 Rocket 4.3 23:34:50 13° ENE 23:34:50 13° ENE 23:35:56 10° ENE
SeaSat 1 3.9 23:32:37 25° SW 23:33:26 27° WSW 23:37:35 10° NW
Cosmos 1842 Rocket 3.7 23:29:06 10° N 23:33:08 74° NNW 23:33:08 74° NNW
Cosmos 2084 4.2 23:30:08 10° NW 23:33:35 44° W 23:33:35 44° W
Cosmos 1656 Rocket 3.5 23:32:05 10° NNW 23:37:47 85° ENE 23:38:15 76° SE
Cosmos 2208 Rocket 4.1 23:38:07 10° NNW 23:43:14 63° WSW 23:43:24 62° WSW
NOSS 3-2 (C) 3.3 23:43:08 66° SE 23:43:18 66° ESE 23:49:45 10° NE
Atlas Centaur 2 3.5 23:36:24 10° W 23:42:49 38° SSW 23:42:49 38° SSW
Cosmos 1707 4.2 23:50:19 35° NNE 23:50:19 35° NNE 23:52:40 10° N
Cosmos 1953 4.2 23:49:57 10° NW 23:52:53 24° W 23:52:53 24° W
Cosmos 1092 Rocket 4.1 23:51:45 52° SW 23:53:12 69° W 23:59:29 10° N
